{"data":{"norad_id":64912,"intl_designator":"2025-157J","name":"STARLINK-34711","alt_names":[],"object_type":"PAYLOAD","status":"ACTIVE","operator":null,"country":"US","launch_date":"2025-07-26","launch_site_code":"AFETR","launch_vehicle":null,"mission":null,"orbit_class":"UNKNOWN","rcs_meters":null,"size_class":null,"mass_kg":null,"dimensions":null,"purposes":["comms"],"wikipedia_slug":null,"has_3d_model":false,"image_url":null,"decayed_at":null,"tle_current":{"epoch":"2026-09-20T05:18:14.613408Z","epoch_age_seconds":148415,"freshness":"FRESH","line1":"1 64912U 25157J   26263.22100247  .00016342  00000+0  49355-3 0  9993","line2":"2 64912  53.1583 158.8111 0001349  98.3263 261.7893 15.34411561 65954","mean_motion":15.34411561,"eccentricity":0.0001349,"inclination_deg":53.1583,"raan_deg":158.8111,"arg_perigee_deg":98.3263,"mean_anomaly_deg":261.7893,"bstar":0.00049355,"rev_number":6595,"period_min":93.847050986864,"perigee_km":461.74605398145,"apogee_km":463.59170340752,"semimajor_km":6840.8058786945,"source":"CELESTRAK","updated_at":"2026-09-21T09:00:35.455348Z"}}}